This demonstration page uses our WeatherBlox Daily Observations layout. Learn more.

Left ArrowRight Arrow

Hourly Observations for December 3, 2015

Temp ( °F °C ) Dew Point ( °F °C ) Humidity (%) Winds ( mph kmh ) Pressure ( in mb ) Visibility ( mi km ) Precip ( " mm )
12:09 am 00:09 Cloudy with Light Snow 34 1.1 31 -0.6 89 89 WNW 9 15 30.09 1019 4 6 0.01 0.25
12:16 am 00:16 Cloudy with Light Snow 35 1.7 31 -0.6 85 85 WNW 10 17 30.06 1018 9 14 0.01 0.25
12:25 am 00:25 Cloudy 35 1.7 29 -1.7 78 78 WNW 9 15 30.09 1019 10 16 0.01 0.25
12:53 am 00:53 Mostly Cloudy 34 1.1 29 -1.7 82 82 WNW 9 15 30.08 1019 10 16 0.01 0.25
1:53 am 01:53 Cloudy 35 1.7 29 -1.7 78 78 WNW 10 17 30.09 1019 10 16 N/A
2:53 am 02:53 Partly Cloudy 34 1.1 27 -2.8 76 76 WNW 8 13 30.12 1020 10 16 N/A
3:29 am 03:29 Mostly Cloudy 34 1.1 26 -3.3 73 73 WNW 7 11 30.15 1021 10 16 N/A
3:53 am 03:53 Mostly Cloudy 33 0.6 26 -3.3 75 75 W 7 11 30.16 1021 10 16 N/A
4:12 am 04:12 Partly Cloudy 33 0.6 26 -3.3 75 75 W 6 9 30.18 1022 10 16 N/A
4:53 am 04:53 Partly Cloudy 32 undefined 26 -3.3 79 79 W 6 9 30.18 1022 10 16 N/A
5:53 am 05:53 Mostly Cloudy 31 -0.6 26 -3.3 82 82 W 6 9 30.21 1023 10 16 N/A
6:53 am 06:53 Mostly Clear 30 -1.1 25 -3.9 82 82 W 6 9 30.24 1024 10 16 N/A
7:53 am 07:53 Cloudy 32 undefined 27 -2.8 82 82 W 6 9 30.27 1025 10 16 N/A
8:53 am 08:53 Cloudy 34 1.1 27 -2.8 76 76 WNW 7 11 30.29 1026 10 16 N/A
9:53 am 09:53 Cloudy 35 1.7 28 -2.2 76 76 W 6 9 30.34 1027 10 16 N/A
10:53 am 10:53 undefined 37 2.8 30 -1.1 76 76 W 5 7 30.35 1028 N/A N/A
11:53 am 11:53 Cloudy 39 3.9 30 -1.1 70 70 undefined N/A 30.35 1028 10 16 N/A
12:53 pm 12:53 Cloudy 41 5 31 -0.6 67 67 W 3 6 30.35 1028 10 16 N/A
1:53 pm 13:53 Cloudy 42 5.6 32 undefined 68 68 WNW 6 9 30.35 1028 10 16 N/A
2:53 pm 14:53 Cloudy 42 5.6 32 undefined 68 68 NW 8 13 30.37 1028 10 16 N/A
3:53 pm 15:53 Cloudy 42 5.6 31 -0.6 65 65 W 7 11 30.38 1029 10 16 N/A
4:53 pm 16:53 Cloudy 41 5 31 -0.6 67 67 WNW 5 7 30.40 1030 10 16 N/A
5:53 pm 17:53 Cloudy 40 4.4 31 -0.6 70 70 WNW 9 15 30.42 1030 10 16 N/A
6:53 pm 18:53 Cloudy 38 3.3 31 -0.6 76 76 WNW 6 9 30.44 1031 10 16 N/A
7:53 pm 19:53 Mostly Cloudy 37 2.8 30 -1.1 76 76 W 6 9 30.46 1031 10 16 N/A
8:00 pm 20:00 Partly Cloudy 36 2.2 29 -1.7 76 76 W 5 7 30.48 1032 10 16 N/A
8:53 pm 20:53 Clear 30 -1.1 27 -2.8 88 88 N N/A 30.48 1032 9 14 N/A
9:53 pm 21:53 Clear with Mist and Fog 28 -2.2 25 -3.9 88 88 N N/A 30.48 1032 6 10 N/A
10:53 pm 22:53 Clear 26 -3.3 24 -4.4 92 92 N N/A 30.49 1032 7 11 N/A
11:53 pm 23:53 Clear 26 -3.3 23 -5 88 88 N N/A 30.49 1033 7 11 N/A

Powered by AerisWeather